User: anonymous   Login
Location: Caltech
(34.1382°N, 118.1253°W)
Time: 18:36:28
(UTC-07:00)
Language:

NOSS 3-2 (A) - Orbit

View from above orbital plane
View from above orbital plane
View from above satellite
View from above satellite

Ground track
Ground track

The orbit data is extracted from the following two-line orbital elements,

1 28095U 03054A   18078.82801170 0.00000035  00000-0  45367-4 0    07
2 28095  63.4236 328.3731 0332500 358.1551   1.8037 13.41362109    07
Epoch (UTC): 19 March 2018 19:52:20
Eccentricity: 0.0332500
inclination: 63.4236°
perigee height: 855 km
apogee height: 1353 km
right ascension of ascending node: 328.3731°
argument of perigee: 358.1551°
revolutions per day: 13.41362109
mean anomaly at epoch: 1.8037°
orbit number at epoch: 0

The dashed part of the orbit path shows where the satellite is in the earth's shadow,  

DLR